SNORRE B OILP current weather conditions

sailwx.info

Wind from 150 at 28 knots

Air temperature 9.0° C
Visibility: greater than 5.4 NM
Dewpoint 2.0° C

Last reported at 2014-Nov-27 21:20 UTC.
Time now 2014-Nov-27 23:09 UTC

Location: N 61°32' E 002°13'.
View on Google Maps.

See reports from other nearby stations

  
Tides and Currents Weather Stations Pressure Air Temp Water Temp Dewpoint Dewpoint Depression Visibility Wind Speed Wind Dir Waves Ship Positions
date/time (UTC)wind fromknots sea level pressurealtimeterstation pressurevisibilityair tempwater tempwave heightnotes
2014-Nov-27 22:20 140 26 5.4 9.0
2014-Nov-27 21:50 140 27 5.4 9.0
2014-Nov-27 21:20 150 28 5.4 9.0
2014-Nov-27 20:50 150 27 5.4 9.0
2014-Nov-27 20:20 150 27 5.4 9.0
2014-Nov-27 19:50 150 27 5.4 8.0
2014-Nov-27 19:20 150 26 5.4 8.0 Light rain.
2014-Nov-27 18:50 150 26 5.4 8.0
2014-Nov-27 18:20 150 27 5.4 9.0 Light drizzle.
2014-Nov-27 17:50 150 27 5.4 9.0
2014-Nov-27 17:20 140 29 5.4 9.0
2014-Nov-27 16:50 150 32 5.4 9.0
2014-Nov-27 16:20 160 30 5.4 9.0
2014-Nov-27 15:50 150 33 5.4 9.0
2014-Nov-27 15:20 160 34 5.4 9.0 Light rain showers.
2014-Nov-27 14:50 160 34 5.4 9.0
2014-Nov-27 14:20 160 36 4.3 8.0 Light rain showers.
2014-Nov-27 13:50 160 33 5.4 8.0
2014-Nov-27 13:20 160 35 5.4 8.0
2014-Nov-27 12:50 160 33 5.4 9.0
2014-Nov-27 12:20 160 31 5.4 9.0
2014-Nov-27 11:50 160 31 5.4 8.0
2014-Nov-27 11:20 150 33 5.4 9.0
2014-Nov-27 10:50 160 35 5.4 9.0
2014-Nov-27 10:20 150 34 5.4 9.0
2014-Nov-27 09:50 150 35 5.4 9.0 Light rain showers.
2014-Nov-27 09:20 150 35 5.4 9.0 Light drizzle.
2014-Nov-27 08:50 160 34 5.4 9.0
2014-Nov-27 08:20 160 35 5.4 9.0
2014-Nov-27 07:50 160 34 5.4 9.0
2014-Nov-27 07:20 160 37 5.4 9.0 Light rain.
2014-Nov-27 06:50 160 34 5.4 9.0
2014-Nov-27 06:20 160 33 5.4 9.0
2014-Nov-27 05:50 160 35 5.4 9.0
2014-Nov-27 05:20 160 33 5.4 9.0
2014-Nov-27 04:50 160 34 5.4 9.0
2014-Nov-27 04:20 170 31 5.4 9.0
2014-Nov-27 03:50 170 32 5.4 9.0
2014-Nov-27 03:20 160 28 5.4 9.0
2014-Nov-27 02:50 170 33 5.4 9.0
2014-Nov-27 02:20 170 29 5.4 9.0 Light rain showers.
2014-Nov-27 01:50 180 29 5.4 9.0 Light rain showers.
2014-Nov-27 01:20 180 27 5.4 9.0
2014-Nov-27 00:50 180 28 5.4 9.0
2014-Nov-27 00:20 180 30 5.4 9.0
2014-Nov-26 23:50 180 27 5.4 9.0
2014-Nov-26 23:20 180 30 5.4 9.0
2014-Nov-26 22:50 180 28 5.4 9.0
2014-Nov-26 22:20 190 29 5.4 9.0
2014-Nov-26 21:50 190 32 5.4 9.0
2014-Nov-26 21:20 190 31 5.4 9.0 Light rain showers.
2014-Nov-26 20:50 180 29 5.4 9.0
2014-Nov-26 20:20 190 27 5.4 9.0
2014-Nov-26 19:50 180 28 5.4 9.0
2014-Nov-26 19:20 180 27 5.4 9.0
2014-Nov-26 18:50 180 27 5.4 9.0
2014-Nov-26 18:20 190 24 5.4 9.0
2014-Nov-26 17:50 190 27 5.4 9.0 Light rain showers.
2014-Nov-26 17:20 180 29 5.4 9.0 Light rain showers.
2014-Nov-26 16:50 190 29 5.4 9.0
2014-Nov-26 16:20 170 32 5.4 9.0 Light rain showers.
2014-Nov-26 15:50 180 31 5.4 9.0 Light drizzle.
2014-Nov-26 15:20 180 37 5.4 9.0
2014-Nov-26 14:50 180 32 5.4 9.0
2014-Nov-26 14:20 180 32 5.4 9.0
2014-Nov-26 13:50 190 25 3.2 9.0
2014-Nov-26 13:20 180 25 5.4 9.0 Light rain showers.
2014-Nov-26 12:50 170 27 gusting 41 5.4 9.0
2014-Nov-26 12:20 180 27 5.4 9.0
2014-Nov-26 11:50 180 24 5.4 9.0
2014-Nov-26 11:20 180 25 5.4 8.0 Light rain.
2014-Nov-26 10:50 160 24 3.8 8.0
2014-Nov-26 10:20 140 26 5.4 9.0
2014-Nov-26 09:50 140 27 5.4 9.0
2014-Nov-26 09:20 140 27 5.4 9.0
2014-Nov-26 08:50 140 27 5.4 9.0
2014-Nov-26 08:20 140 24 5.4 9.0
2014-Nov-26 07:50 150 25 5.4 9.0
2014-Nov-26 07:20 060 20 5.4 9.0
2014-Nov-26 06:50 070 21 5.4 9.0
2014-Nov-26 06:20 060 20 5.4 9.0
2014-Nov-26 05:50 070 20 5.4 9.0
2014-Nov-26 05:20 060 19 5.4 9.0
2014-Nov-26 04:50 060 20 5.4 9.0
2014-Nov-26 04:20 070 19 5.4 9.0
2014-Nov-26 03:50 080 18 5.4 8.0
2014-Nov-26 03:20 080 19 5.4 8.0
2014-Nov-26 02:50 080 19 5.4 8.0
2014-Nov-26 02:20 070 19 5.4 8.0
2014-Nov-26 01:50 070 17 5.4 8.0
2014-Nov-26 01:20 070 16 5.4 8.0
2014-Nov-26 00:50 070 17 5.4 8.0
2014-Nov-26 00:20 070 16 5.4 9.0
2014-Nov-25 23:50 120 9 5.4 9.0
2014-Nov-25 23:20 180 14 5.4 9.0